contact:dominique.lefevre@mio.osupytheas.fr, maurice.libes@osupytheas.fr, didier.mallarino@osupytheas.fr
Project:EMSO http://www.emso-fr.org/EMSO-France
Depth: 2436.0 m
Title:EMSO Ligure Ouest : Data MII capteur CSTAR
DateTime,Latitude,Longitude,Instrument_Serial,Reference_Counts,Signal_Counts,Corrected_Signal_raw_counts,Calculated_Beam_c_inverse_meters,Internal_thermistor_counts
DateTime,Latitude,Longitude,Instrument_Serial,Reference_Counts,Signal_Counts,Corrected_Signal_raw_counts,Calculated_Beam_c_inverse_meters,Internal_thermistor_counts
2019-05-23T00:00:03,42.805,6.029,CST-1368DR,9408,13170,15588,0.007,551
2019-05-23T00:03:05,42.805,6.029,CST-1368DR,9408,13167,15585,0.008,551
2019-05-23T00:06:06,42.805,6.029,CST-1368DR,9408,13166,15584,0.008,551
2019-05-23T00:09:08,42.805,6.029,CST-1368DR,9408,13166,15584,0.008,551
2019-05-23T00:12:09,42.805,6.029,CST-1368DR,9408,13167,15585,0.008,551
2019-05-23T00:15:10,42.805,6.029,CST-1368DR,9408,13170,15588,0.007,551
2019-05-23T00:18:12,42.805,6.029,CST-1368DR,9408,13169,15588,0.007,551
2019-05-23T00:21:13,42.805,6.029,CST-1368DR,9408,13169,15587,0.007,551
2019-05-23T00:24:15,42.805,6.029,CST-1368DR,9408,13167,15585,0.008,551
2019-05-23T00:27:16,42.805,6.029,CST-1368DR,9408,13168,15586,0.008,551
2019-05-23T00:30:18,42.805,6.029,CST-1368DR,9408,13170,15588,0.007,551
2019-05-23T00:33:19,42.805,6.029,CST-1368DR,9408,13170,15588,0.007,551
2019-05-23T00:36:20,42.805,6.029,CST-1368DR,9408,13166,15584,0.008,551
2019-05-23T00:39:22,42.805,6.029,CST-1368DR,9408,13169,15588,0.007,551
2019-05-23T00:42:23,42.805,6.029,CST-1368DR,9408,13169,15588,0.007,551
2019-05-23T00:45:25,42.805,6.029,CST-1368DR,9408,13168,15586,0.008,551
2019-05-23T00:48:26,42.805,6.029,CST-1368DR,9408,13169,15587,0.007,551
2019-05-23T00:51:27,42.805,6.029,CST-1368DR,9408,13169,15587,0.007,551
2019-05-23T00:54:29,42.805,6.029,CST-1368DR,9408,13164,15581,0.009,551
2019-05-23T00:57:30,42.805,6.029,CST-1368DR,9408,13170,15588,0.007,551
2019-05-23T01:00:32,42.805,6.029,CST-1368DR,9408,13169,15587,0.007,551
2019-05-23T01:03:33,42.805,6.029,CST-1368DR,9408,13168,15586,0.008,551
2019-05-23T01:06:34,42.805,6.029,CST-1368DR,9408,13168,15586,0.008,551
2019-05-23T01:09:36,42.805,6.029,CST-1368DR,9408,13169,15587,0.007,550
2019-05-23T01:12:37,42.805,6.029,CST-1368DR,9408,13168,15586,0.008,551
2019-05-23T01:15:39,42.805,6.029,CST-1368DR,9408,13168,15586,0.008,551
2019-05-23T01:18:40,42.805,6.029,CST-1368DR,9407,13169,15589,0.007,551
2019-05-23T01:21:41,42.805,6.029,CST-1368DR,9407,13169,15589,0.007,551
2019-05-23T01:24:43,42.805,6.029,CST-1368DR,9408,13169,15587,0.007,551
2019-05-23T01:27:44,42.805,6.029,CST-1368DR,9407,13167,15586,0.008,551
2019-05-23T01:30:46,42.805,6.029,CST-1368DR,9407,13167,15586,0.008,551
2019-05-23T01:33:47,42.805,6.029,CST-1368DR,9407,13166,15585,0.008,551
2019-05-23T01:36:49,42.805,6.029,CST-1368DR,9407,13167,15586,0.008,551
2019-05-23T01:39:50,42.805,6.029,CST-1368DR,9407,13168,15587,0.007,551
2019-05-23T01:42:51,42.805,6.029,CST-1368DR,9407,13167,15586,0.008,551
2019-05-23T01:45:53,42.805,6.029,CST-1368DR,9407,13169,15589,0.007,551
2019-05-23T01:48:54,42.805,6.029,CST-1368DR,9407,13166,15586,0.008,551
2019-05-23T01:51:56,42.805,6.029,CST-1368DR,9407,13167,15586,0.008,551
2019-05-23T01:54:57,42.805,6.029,CST-1368DR,9407,13168,15588,0.007,550
2019-05-23T01:57:58,42.805,6.029,CST-1368DR,9407,13166,15586,0.008,551
2019-05-23T02:01:00,42.805,6.029,CST-1368DR,9407,13168,15588,0.007,551
2019-05-23T02:04:01,42.805,6.029,CST-1368DR,9407,13167,15586,0.008,551
2019-05-23T02:07:03,42.805,6.029,CST-1368DR,9407,13168,15587,0.007,551
2019-05-23T02:10:04,42.805,6.029,CST-1368DR,9407,13167,15586,0.008,551
2019-05-23T02:13:05,42.805,6.029,CST-1368DR,9407,13167,15586,0.008,551
2019-05-23T02:16:07,42.805,6.029,CST-1368DR,9407,13168,15587,0.007,551
2019-05-23T02:19:08,42.805,6.029,CST-1368DR,9407,13166,15585,0.008,551
2019-05-23T02:22:10,42.805,6.029,CST-1368DR,9407,13165,15584,0.008,551
2019-05-23T02:25:11,42.805,6.029,CST-1368DR,9407,13167,15586,0.008,551
2019-05-23T02:28:13,42.805,6.029,CST-1368DR,9407,13168,15587,0.007,550
2019-05-23T02:31:14,42.805,6.029,CST-1368DR,9407,13166,15585,0.008,551
2019-05-23T02:34:15,42.805,6.029,CST-1368DR,9407,13165,15584,0.008,551
2019-05-23T02:37:17,42.805,6.029,CST-1368DR,9407,13166,15585,0.008,551
2019-05-23T02:40:18,42.805,6.029,CST-1368DR,9407,13165,15584,0.008,551
2019-05-23T02:43:20,42.805,6.029,CST-1368DR,9406,13167,15588,0.007,551
2019-05-23T02:46:21,42.805,6.029,CST-1368DR,9406,13165,15586,0.008,550
2019-05-23T02:49:22,42.805,6.029,CST-1368DR,9406,13166,15586,0.008,551
2019-05-23T02:52:24,42.805,6.029,CST-1368DR,9406,13166,15586,0.008,551
2019-05-23T02:55:25,42.805,6.029,CST-1368DR,9406,13166,15587,0.007,551
2019-05-23T02:58:27,42.805,6.029,CST-1368DR,9406,13166,15586,0.008,551
2019-05-23T03:01:28,42.805,6.029,CST-1368DR,9406,13166,15587,0.007,551
2019-05-23T03:04:29,42.805,6.029,CST-1368DR,9406,13167,15587,0.007,551
2019-05-23T03:07:31,42.805,6.029,CST-1368DR,9406,13164,15584,0.008,551
2019-05-23T03:10:32,42.805,6.029,CST-1368DR,9406,13166,15586,0.008,550
2019-05-23T03:13:34,42.805,6.029,CST-1368DR,9406,13163,15583,0.008,551
2019-05-23T03:16:35,42.805,6.029,CST-1368DR,9406,13165,15585,0.008,550
2019-05-23T03:19:36,42.805,6.029,CST-1368DR,9406,13164,15584,0.008,551
2019-05-23T03:22:38,42.805,6.029,CST-1368DR,9406,13165,15585,0.008,551
2019-05-23T03:25:39,42.805,6.029,CST-1368DR,9406,13165,15586,0.008,551
2019-05-23T03:28:41,42.805,6.029,CST-1368DR,9406,13165,15585,0.008,551
2019-05-23T03:31:42,42.805,6.029,CST-1368DR,9406,13164,15584,0.008,550
2019-05-23T03:34:44,42.805,6.029,CST-1368DR,9406,13163,15583,0.008,551
2019-05-23T03:37:45,42.805,6.029,CST-1368DR,9406,13165,15586,0.008,550
2019-05-23T03:40:46,42.805,6.029,CST-1368DR,9406,13162,15582,0.009,550
2019-05-23T03:43:48,42.805,6.029,CST-1368DR,9406,13166,15586,0.008,551
2019-05-23T03:46:49,42.805,6.029,CST-1368DR,9406,13166,15587,0.007,551
2019-05-23T03:49:51,42.805,6.029,CST-1368DR,9406,13166,15587,0.007,550
2019-05-23T03:52:52,42.805,6.029,CST-1368DR,9406,13165,15585,0.008,551
2019-05-23T03:55:53,42.805,6.029,CST-1368DR,9406,13163,15584,0.008,551
2019-05-23T03:58:55,42.805,6.029,CST-1368DR,9406,13163,15584,0.008,551
2019-05-23T04:01:56,42.805,6.029,CST-1368DR,9405,13164,15586,0.008,551
2019-05-23T04:04:58,42.805,6.029,CST-1368DR,9405,13164,15586,0.008,551
2019-05-23T04:07:59,42.805,6.029,CST-1368DR,9405,13164,15586,0.008,551
2019-05-23T04:11:00,42.805,6.029,CST-1368DR,9405,13165,15587,0.007,551
2019-05-23T04:14:02,42.805,6.029,CST-1368DR,9405,13164,15586,0.008,551
2019-05-23T04:17:03,42.805,6.029,CST-1368DR,9405,13165,15587,0.007,551
2019-05-23T04:20:05,42.805,6.029,CST-1368DR,9405,13166,15588,0.007,551
2019-05-23T04:23:06,42.805,6.029,CST-1368DR,9405,13166,15588,0.007,551
2019-05-23T04:26:08,42.805,6.029,CST-1368DR,9405,13165,15587,0.007,550
2019-05-23T04:29:09,42.805,6.029,CST-1368DR,9405,13162,15583,0.008,551
2019-05-23T04:32:10,42.805,6.029,CST-1368DR,9405,13165,15587,0.007,551
2019-05-23T04:35:12,42.805,6.029,CST-1368DR,9405,13165,15587,0.007,551
2019-05-23T04:38:13,42.805,6.029,CST-1368DR,9405,13163,15584,0.008,551
2019-05-23T04:41:15,42.805,6.029,CST-1368DR,9405,13166,15588,0.007,551
2019-05-23T04:44:16,42.805,6.029,CST-1368DR,9405,13163,15585,0.008,551
2019-05-23T04:47:17,42.805,6.029,CST-1368DR,9405,13164,15586,0.008,551
2019-05-23T04:50:19,42.805,6.029,CST-1368DR,9405,13164,15586,0.008,551
2019-05-23T04:53:20,42.805,6.029,CST-1368DR,9405,13166,15588,0.007,551
2019-05-23T04:56:22,42.805,6.029,CST-1368DR,9405,13164,15586,0.008,551
2019-05-23T04:59:23,42.805,6.029,CST-1368DR,9405,13164,15586,0.008,551
2019-05-23T05:02:24,42.805,6.029,CST-1368DR,9405,13156,15576,0.010,551
2019-05-23T05:05:26,42.805,6.029,CST-1368DR,9405,13165,15587,0.007,551
2019-05-23T05:08:27,42.805,6.029,CST-1368DR,9404,13163,15586,0.008,551
2019-05-23T05:11:29,42.805,6.029,CST-1368DR,9404,13163,15586,0.008,551
2019-05-23T05:14:30,42.805,6.029,CST-1368DR,9404,13163,15586,0.008,551
2019-05-23T05:17:31,42.805,6.029,CST-1368DR,9404,13164,15587,0.007,551
2019-05-23T05:20:33,42.805,6.029,CST-1368DR,9404,13162,15584,0.008,551
2019-05-23T05:23:34,42.805,6.029,CST-1368DR,9404,13161,15584,0.008,551
2019-05-23T05:26:36,42.805,6.029,CST-1368DR,9404,13153,15575,0.011,551
2019-05-23T05:29:37,42.805,6.029,CST-1368DR,9404,13162,15584,0.008,551
2019-05-23T05:32:39,42.805,6.029,CST-1368DR,9404,13162,15585,0.008,551
2019-05-23T05:35:40,42.805,6.029,CST-1368DR,9404,13161,15583,0.008,551
2019-05-23T05:38:41,42.805,6.029,CST-1368DR,9404,13160,15582,0.009,551
2019-05-23T05:41:43,42.805,6.029,CST-1368DR,9404,13163,15586,0.008,551
2019-05-23T05:44:44,42.805,6.029,CST-1368DR,9404,13162,15584,0.008,551
2019-05-23T05:47:46,42.805,6.029,CST-1368DR,9404,13161,15584,0.008,551
2019-05-23T05:50:47,42.805,6.029,CST-1368DR,9404,13157,15579,0.009,551
2019-05-23T05:53:48,42.805,6.029,CST-1368DR,9404,13162,15584,0.008,551
2019-05-23T05:56:50,42.805,6.029,CST-1368DR,9404,13162,15585,0.008,550
2019-05-23T05:59:51,42.805,6.029,CST-1368DR,9404,13162,15585,0.008,550
2019-05-23T06:02:53,42.805,6.029,CST-1368DR,9404,13162,15585,0.008,551
2019-05-23T06:05:54,42.805,6.029,CST-1368DR,9404,13162,15585,0.008,551
2019-05-23T06:08:55,42.805,6.029,CST-1368DR,9404,13160,15583,0.008,551
2019-05-23T06:11:57,42.805,6.029,CST-1368DR,9404,13160,15582,0.009,551
2019-05-23T06:14:58,42.805,6.029,CST-1368DR,9404,13163,15586,0.008,551
2019-05-23T06:18:00,42.805,6.029,CST-1368DR,9404,13161,15583,0.008,551
2019-05-23T06:21:01,42.805,6.029,CST-1368DR,9403,13161,15585,0.008,551
2019-05-23T06:24:02,42.805,6.029,CST-1368DR,9403,13161,15585,0.008,550
2019-05-23T06:27:04,42.805,6.029,CST-1368DR,9403,13160,15584,0.008,551
2019-05-23T06:30:05,42.805,6.029,CST-1368DR,9403,13161,15585,0.008,551
2019-05-23T06:33:07,42.805,6.029,CST-1368DR,9403,13161,15586,0.008,551
2019-05-23T06:36:08,42.805,6.029,CST-1368DR,9403,13162,15586,0.008,551
2019-05-23T06:39:10,42.805,6.029,CST-1368DR,9403,13162,15587,0.007,551
2019-05-23T06:42:11,42.805,6.029,CST-1368DR,9403,13159,15583,0.008,551
2019-05-23T06:45:12,42.805,6.029,CST-1368DR,9403,13159,15583,0.008,550
2019-05-23T06:48:14,42.805,6.029,CST-1368DR,9403,13160,15585,0.008,551
2019-05-23T06:51:15,42.805,6.029,CST-1368DR,9403,13161,15585,0.008,551
2019-05-23T06:54:17,42.805,6.029,CST-1368DR,9403,13161,15586,0.008,551
2019-05-23T06:57:18,42.805,6.029,CST-1368DR,9403,13152,15575,0.011,551
2019-05-23T07:00:19,42.805,6.029,CST-1368DR,9403,13162,15587,0.007,551
2019-05-23T07:03:21,42.805,6.029,CST-1368DR,9403,13154,15577,0.010,551
2019-05-23T07:06:22,42.805,6.029,CST-1368DR,9403,13161,15585,0.008,551
2019-05-23T07:09:24,42.805,6.029,CST-1368DR,9403,13158,15581,0.009,551
2019-05-23T07:12:25,42.805,6.029,CST-1368DR,9403,13161,15586,0.008,551
2019-05-23T07:15:26,42.805,6.029,CST-1368DR,9403,13158,15582,0.009,551
2019-05-23T07:18:28,42.805,6.029,CST-1368DR,9403,13160,15585,0.008,551
2019-05-23T07:21:29,42.805,6.029,CST-1368DR,9403,13162,15586,0.008,551
2019-05-23T07:24:31,42.805,6.029,CST-1368DR,9403,13153,15576,0.010,551
2019-05-23T07:27:32,42.805,6.029,CST-1368DR,9403,13158,15581,0.009,551
2019-05-23T07:30:34,42.805,6.029,CST-1368DR,9403,13161,15585,0.008,551
2019-05-23T07:33:35,42.805,6.029,CST-1368DR,9403,13162,15587,0.007,551
2019-05-23T07:36:36,42.805,6.029,CST-1368DR,9403,13161,15586,0.008,551
2019-05-23T07:39:38,42.805,6.029,CST-1368DR,9403,13160,15584,0.008,551
2019-05-23T07:42:39,42.805,6.029,CST-1368DR,9402,13158,15583,0.008,551
2019-05-23T07:45:41,42.805,6.029,CST-1368DR,9402,13161,15587,0.007,551
2019-05-23T07:48:42,42.805,6.029,CST-1368DR,9402,13161,15586,0.008,550
2019-05-23T07:51:43,42.805,6.029,CST-1368DR,9402,13160,15585,0.008,551
2019-05-23T07:54:45,42.805,6.029,CST-1368DR,9402,13161,15587,0.007,551
2019-05-23T07:57:46,42.805,6.029,CST-1368DR,9402,13160,15585,0.008,551
2019-05-23T08:00:48,42.805,6.029,CST-1368DR,9402,13159,15585,0.008,550
2019-05-23T08:03:49,42.805,6.029,CST-1368DR,9402,13161,15586,0.008,551
2019-05-23T08:06:50,42.805,6.029,CST-1368DR,9402,13161,15587,0.007,551
2019-05-23T08:09:52,42.805,6.029,CST-1368DR,9402,13161,15586,0.008,550
2019-05-23T08:12:53,42.805,6.029,CST-1368DR,9402,13161,15586,0.008,551
2019-05-23T08:15:55,42.805,6.029,CST-1368DR,9402,13161,15587,0.007,551
2019-05-23T08:18:56,42.805,6.029,CST-1368DR,9402,13158,15583,0.008,551
2019-05-23T08:21:57,42.805,6.029,CST-1368DR,9402,13161,15587,0.007,551
2019-05-23T08:24:59,42.805,6.029,CST-1368DR,9402,13161,15586,0.008,551
2019-05-23T08:28:00,42.805,6.029,CST-1368DR,9402,13159,15585,0.008,551
2019-05-23T08:31:02,42.805,6.029,CST-1368DR,9402,13159,15584,0.008,550
2019-05-23T08:34:03,42.805,6.029,CST-1368DR,9402,13158,15583,0.008,551
2019-05-23T08:37:05,42.805,6.029,CST-1368DR,9402,13153,15577,0.010,551
2019-05-23T08:40:06,42.805,6.029,CST-1368DR,9402,13158,15583,0.008,551
2019-05-23T08:43:07,42.805,6.029,CST-1368DR,9402,13159,15585,0.008,551
2019-05-23T08:46:09,42.805,6.029,CST-1368DR,9402,13160,15585,0.008,551
2019-05-23T08:49:10,42.805,6.029,CST-1368DR,9402,13160,15585,0.008,550
2019-05-23T08:52:12,42.805,6.029,CST-1368DR,9402,13158,15584,0.008,551
2019-05-23T08:55:13,42.805,6.029,CST-1368DR,9402,13158,15583,0.008,551
2019-05-23T08:58:14,42.805,6.029,CST-1368DR,9402,13159,15585,0.008,551
2019-05-23T09:01:16,42.805,6.029,CST-1368DR,9401,13157,15583,0.008,551
2019-05-23T09:04:17,42.805,6.029,CST-1368DR,9401,13153,15579,0.009,551
2019-05-23T09:07:19,42.805,6.029,CST-1368DR,9401,13158,15585,0.008,551
2019-05-23T09:10:20,42.805,6.029,CST-1368DR,9401,13153,15579,0.009,550
2019-05-23T09:13:21,42.805,6.029,CST-1368DR,9401,13157,15584,0.008,551
2019-05-23T09:16:23,42.805,6.029,CST-1368DR,9401,13159,15586,0.008,551
2019-05-23T09:19:24,42.805,6.029,CST-1368DR,9401,13157,15584,0.008,551
2019-05-23T09:22:26,42.805,6.029,CST-1368DR,9401,13158,15585,0.008,551
2019-05-23T09:25:27,42.805,6.029,CST-1368DR,9401,13158,15585,0.008,551
2019-05-23T09:28:28,42.805,6.029,CST-1368DR,9401,13158,15585,0.008,551
2019-05-23T09:31:30,42.805,6.029,CST-1368DR,9401,13160,15588,0.007,551
2019-05-23T09:34:31,42.805,6.029,CST-1368DR,9401,13156,15583,0.008,550
2019-05-23T09:37:33,42.805,6.029,CST-1368DR,9401,13158,15585,0.008,551
2019-05-23T09:40:34,42.805,6.029,CST-1368DR,9401,13157,15584,0.008,551
2019-05-23T09:43:36,42.805,6.029,CST-1368DR,9401,13159,15586,0.008,551
2019-05-23T09:46:37,42.805,6.029,CST-1368DR,9401,13160,15587,0.007,551
2019-05-23T09:49:38,42.805,6.029,CST-1368DR,9401,13159,15586,0.008,550
2019-05-23T09:52:40,42.805,6.029,CST-1368DR,9401,13158,15585,0.008,551
2019-05-23T09:55:41,42.805,6.029,CST-1368DR,9401,13159,15586,0.008,551
2019-05-23T09:58:43,42.805,6.029,CST-1368DR,9401,13159,15586,0.008,551
2019-05-23T10:01:44,42.805,6.029,CST-1368DR,9401,13157,15583,0.008,551
2019-05-23T10:04:45,42.805,6.029,CST-1368DR,9401,13158,15585,0.008,551
2019-05-23T10:07:47,42.805,6.029,CST-1368DR,9400,13154,15582,0.009,551
2019-05-23T10:10:48,42.805,6.029,CST-1368DR,9401,13158,15585,0.008,551
2019-05-23T10:13:50,42.805,6.029,CST-1368DR,9401,13159,15586,0.008,550
2019-05-23T10:16:51,42.805,6.029,CST-1368DR,9400,13155,15582,0.009,551
2019-05-23T10:19:52,42.805,6.029,CST-1368DR,9400,13157,15586,0.008,551
2019-05-23T10:22:54,42.805,6.029,CST-1368DR,9400,13159,15587,0.007,551
2019-05-23T10:25:55,42.805,6.029,CST-1368DR,9400,13158,15586,0.008,551
2019-05-23T10:28:57,42.805,6.029,CST-1368DR,9400,13156,15584,0.008,551
2019-05-23T10:31:58,42.805,6.029,CST-1368DR,9400,13156,15584,0.008,551
2019-05-23T10:34:59,42.805,6.029,CST-1368DR,9400,13157,15585,0.008,551
2019-05-23T10:38:01,42.805,6.029,CST-1368DR,9400,13158,15586,0.008,551
2019-05-23T10:41:02,42.805,6.029,CST-1368DR,9400,13158,15586,0.008,551
2019-05-23T10:44:04,42.805,6.029,CST-1368DR,9400,13155,15583,0.008,551
2019-05-23T10:47:05,42.805,6.029,CST-1368DR,9400,13157,15585,0.008,551
2019-05-23T10:50:07,42.805,6.029,CST-1368DR,9400,13158,15586,0.008,551
2019-05-23T10:53:08,42.805,6.029,CST-1368DR,9400,13157,15585,0.008,551
2019-05-23T10:56:09,42.805,6.029,CST-1368DR,9400,13158,15586,0.008,551
2019-05-23T10:59:11,42.805,6.029,CST-1368DR,9400,13156,15584,0.008,551
2019-05-23T11:02:12,42.805,6.029,CST-1368DR,9400,13156,15584,0.008,551
2019-05-23T11:05:14,42.805,6.029,CST-1368DR,9400,13158,15586,0.008,551
2019-05-23T11:08:15,42.805,6.029,CST-1368DR,9400,13157,15585,0.008,550
2019-05-23T11:11:16,42.805,6.029,CST-1368DR,9400,13158,15586,0.008,551
2019-05-23T11:14:18,42.805,6.029,CST-1368DR,9400,13152,15579,0.009,551
2019-05-23T11:17:19,42.805,6.029,CST-1368DR,9400,13155,15583,0.008,551
2019-05-23T11:20:21,42.805,6.029,CST-1368DR,9400,13156,15584,0.008,550
2019-05-23T11:23:22,42.805,6.029,CST-1368DR,9400,13155,15583,0.008,551
2019-05-23T11:26:23,42.805,6.029,CST-1368DR,9400,13158,15586,0.008,551
2019-05-23T11:29:25,42.805,6.029,CST-1368DR,9399,13147,15574,0.011,551
2019-05-23T11:32:26,42.805,6.029,CST-1368DR,9400,13157,15585,0.008,551
2019-05-23T11:35:28,42.805,6.029,CST-1368DR,9399,13156,15585,0.008,551
2019-05-23T11:38:29,42.805,6.029,CST-1368DR,9399,13156,15586,0.008,551
2019-05-23T11:41:31,42.805,6.029,CST-1368DR,9399,13157,15586,0.008,551
2019-05-23T11:44:32,42.805,6.029,CST-1368DR,9399,13156,15586,0.008,550
2019-05-23T11:47:33,42.805,6.029,CST-1368DR,9399,13151,15579,0.009,551
2019-05-23T11:50:35,42.805,6.029,CST-1368DR,9399,13155,15585,0.008,551
2019-05-23T11:53:36,42.805,6.029,CST-1368DR,9399,13153,15582,0.009,550
2019-05-23T11:56:38,42.805,6.029,CST-1368DR,9399,13154,15583,0.008,551
2019-05-23T11:59:39,42.805,6.029,CST-1368DR,9399,13155,15584,0.008,551
2019-05-23T12:02:40,42.805,6.029,CST-1368DR,9399,13154,15583,0.008,551
2019-05-23T12:05:42,42.805,6.029,CST-1368DR,9399,13153,15581,0.009,551
2019-05-23T12:08:43,42.805,6.029,CST-1368DR,9399,13154,15583,0.008,551
2019-05-23T12:11:45,42.805,6.029,CST-1368DR,9399,13154,15583,0.008,550
2019-05-23T12:14:46,42.805,6.029,CST-1368DR,9399,13148,15576,0.010,551
2019-05-23T12:17:47,42.805,6.029,CST-1368DR,9399,13149,15578,0.010,551
2019-05-23T12:20:49,42.805,6.029,CST-1368DR,9399,13151,15579,0.009,550
2019-05-23T12:23:50,42.805,6.029,CST-1368DR,9399,13153,15582,0.009,551
2019-05-23T12:26:52,42.805,6.029,CST-1368DR,9399,13154,15583,0.008,551
2019-05-23T12:29:53,42.805,6.029,CST-1368DR,9399,13154,15583,0.008,551
2019-05-23T12:32:54,42.805,6.029,CST-1368DR,9399,13154,15583,0.008,551
2019-05-23T12:35:56,42.805,6.029,CST-1368DR,9399,13154,15583,0.008,550
2019-05-23T12:38:57,42.805,6.029,CST-1368DR,9399,13154,15583,0.008,551
2019-05-23T12:41:59,42.805,6.029,CST-1368DR,9398,13154,15585,0.008,551
2019-05-23T12:45:00,42.805,6.029,CST-1368DR,9399,13152,15580,0.009,551
2019-05-23T12:48:02,42.805,6.029,CST-1368DR,9399,13155,15584,0.008,550
2019-05-23T12:51:03,42.805,6.029,CST-1368DR,9398,13153,15584,0.008,551
2019-05-23T12:54:04,42.805,6.029,CST-1368DR,9398,13153,15583,0.008,551
2019-05-23T12:57:06,42.805,6.029,CST-1368DR,9398,13154,15584,0.008,551
2019-05-23T13:00:07,42.805,6.029,CST-1368DR,9398,13156,15587,0.007,551
2019-05-23T13:03:09,42.805,6.029,CST-1368DR,9398,13152,15583,0.008,551
2019-05-23T13:06:10,42.805,6.029,CST-1368DR,9398,13153,15583,0.008,551
2019-05-23T13:09:11,42.805,6.029,CST-1368DR,9398,13153,15583,0.008,551
2019-05-23T13:12:13,42.805,6.029,CST-1368DR,9398,13154,15584,0.008,551
2019-05-23T13:15:14,42.805,6.029,CST-1368DR,9398,13153,15584,0.008,551
2019-05-23T13:18:16,42.805,6.029,CST-1368DR,9398,13154,15584,0.008,551
2019-05-23T13:21:17,42.805,6.029,CST-1368DR,9398,13153,15583,0.008,551
2019-05-23T13:24:18,42.805,6.029,CST-1368DR,9398,13153,15583,0.008,551
2019-05-23T13:27:20,42.805,6.029,CST-1368DR,9398,13154,15584,0.008,551
2019-05-23T13:30:21,42.805,6.029,CST-1368DR,9398,13151,15581,0.009,551
2019-05-23T13:33:23,42.805,6.029,CST-1368DR,9398,13151,15581,0.009,551
2019-05-23T13:36:24,42.805,6.029,CST-1368DR,9398,13146,15575,0.011,551
2019-05-23T13:39:25,42.805,6.029,CST-1368DR,9398,13146,15575,0.011,551
2019-05-23T13:42:27,42.805,6.029,CST-1368DR,9398,13152,15582,0.009,551
2019-05-23T13:45:28,42.805,6.029,CST-1368DR,9398,13151,15581,0.009,550
2019-05-23T13:48:30,42.805,6.029,CST-1368DR,9398,13149,15579,0.009,550
2019-05-23T13:51:31,42.805,6.029,CST-1368DR,9398,13149,15578,0.010,550
2019-05-23T13:54:33,42.805,6.029,CST-1368DR,9398,13149,15578,0.010,551
2019-05-23T13:57:34,42.805,6.029,CST-1368DR,9398,13153,15583,0.008,550
2019-05-23T14:00:35,42.805,6.029,CST-1368DR,9398,13151,15581,0.009,551
2019-05-23T14:03:37,42.805,6.029,CST-1368DR,9397,13152,15584,0.008,551
2019-05-23T14:06:38,42.805,6.029,CST-1368DR,9397,13149,15580,0.009,551
2019-05-23T14:09:40,42.805,6.029,CST-1368DR,9397,13150,15581,0.009,551
2019-05-23T14:12:41,42.805,6.029,CST-1368DR,9397,13149,15580,0.009,551
2019-05-23T14:15:42,42.805,6.029,CST-1368DR,9397,13150,15582,0.009,551
2019-05-23T14:18:44,42.805,6.029,CST-1368DR,9397,13148,15579,0.009,551
2019-05-23T14:21:45,42.805,6.029,CST-1368DR,9397,13154,15586,0.008,551
2019-05-23T14:24:47,42.805,6.029,CST-1368DR,9397,13150,15581,0.009,551
2019-05-23T14:27:48,42.805,6.029,CST-1368DR,9397,13153,15585,0.008,551
2019-05-23T14:30:49,42.805,6.029,CST-1368DR,9397,13152,15584,0.008,551
2019-05-23T14:33:51,42.805,6.029,CST-1368DR,9397,13152,15584,0.008,551
2019-05-23T14:36:52,42.805,6.029,CST-1368DR,9397,13152,15584,0.008,551
2019-05-23T14:39:54,42.805,6.029,CST-1368DR,9397,13150,15582,0.009,551
2019-05-23T14:42:55,42.805,6.029,CST-1368DR,9397,13151,15582,0.009,551
2019-05-23T14:45:57,42.805,6.029,CST-1368DR,9397,13151,15583,0.008,551
2019-05-23T14:48:58,42.805,6.029,CST-1368DR,9397,13153,15585,0.008,551
2019-05-23T14:51:59,42.805,6.029,CST-1368DR,9397,13153,15585,0.008,551
2019-05-23T14:55:01,42.805,6.029,CST-1368DR,9397,13151,15582,0.009,551
2019-05-23T14:58:02,42.805,6.029,CST-1368DR,9397,13151,15583,0.008,551
2019-05-23T15:01:04,42.805,6.029,CST-1368DR,9397,13150,15581,0.009,551
2019-05-23T15:04:05,42.805,6.029,CST-1368DR,9397,13150,15581,0.009,551
2019-05-23T15:07:06,42.805,6.029,CST-1368DR,9397,13150,15581,0.009,551
2019-05-23T15:10:08,42.805,6.029,CST-1368DR,9397,13150,15581,0.009,551
2019-05-23T15:13:09,42.805,6.029,CST-1368DR,9397,13151,15582,0.009,551
2019-05-23T15:16:11,42.805,6.029,CST-1368DR,9397,13150,15582,0.009,551
2019-05-23T15:19:12,42.805,6.029,CST-1368DR,9397,13149,15581,0.009,551
2019-05-23T15:22:13,42.805,6.029,CST-1368DR,9397,13152,15584,0.008,550
2019-05-23T15:25:15,42.805,6.029,CST-1368DR,9397,13150,15581,0.009,550
2019-05-23T15:28:16,42.805,6.029,CST-1368DR,9396,13150,15582,0.009,551
2019-05-23T15:31:18,42.805,6.029,CST-1368DR,9396,13151,15584,0.008,551
2019-05-23T15:34:19,42.805,6.029,CST-1368DR,9397,13152,15584,0.008,551
2019-05-23T15:37:20,42.805,6.029,CST-1368DR,9396,13153,15586,0.008,551
2019-05-23T15:40:22,42.805,6.029,CST-1368DR,9396,13153,15586,0.008,551
2019-05-23T15:43:23,42.805,6.029,CST-1368DR,9396,13148,15580,0.009,551
2019-05-23T15:46:25,42.805,6.029,CST-1368DR,9396,13150,15583,0.008,551
2019-05-23T15:49:26,42.805,6.029,CST-1368DR,9396,13153,15586,0.008,551
2019-05-23T15:52:28,42.805,6.029,CST-1368DR,9396,13152,15585,0.008,551
2019-05-23T15:55:29,42.805,6.029,CST-1368DR,9396,13153,15586,0.008,551
2019-05-23T15:58:30,42.805,6.029,CST-1368DR,9396,13145,15577,0.010,551
2019-05-23T16:01:32,42.805,6.029,CST-1368DR,9396,13152,15585,0.008,550
2019-05-23T16:04:33,42.805,6.029,CST-1368DR,9396,13151,15584,0.008,550
2019-05-23T16:07:35,42.805,6.029,CST-1368DR,9396,13152,15585,0.008,551
2019-05-23T16:10:36,42.805,6.029,CST-1368DR,9396,13151,15584,0.008,551
2019-05-23T16:13:37,42.805,6.029,CST-1368DR,9396,13150,15583,0.008,551
2019-05-23T16:16:39,42.805,6.029,CST-1368DR,9396,13153,15586,0.008,551
2019-05-23T16:19:40,42.805,6.029,CST-1368DR,9396,13151,15584,0.008,551
2019-05-23T16:22:42,42.805,6.029,CST-1368DR,9396,13151,15584,0.008,551
2019-05-23T16:25:43,42.805,6.029,CST-1368DR,9396,13150,15583,0.008,551
2019-05-23T16:28:44,42.805,6.029,CST-1368DR,9396,13151,15584,0.008,551
2019-05-23T16:31:46,42.805,6.029,CST-1368DR,9396,13151,15584,0.008,550
2019-05-23T16:34:47,42.805,6.029,CST-1368DR,9396,13150,15583,0.008,551